• In Hungary
  • List of Countries
  • For 7 days
  • Water Temperature
  • Satellite Maps
  • Weather Map
  • News
  • Weather Widgets
  • user-avatar
    Login

    Hourly Weather Miedzymostki

    Today, 24 November, Friday

    Time Temperature Precipitation Wind Pressure Humidity
    00:00 +2°C° 0 mm 2 mps 715 mmHg 90%
    01:00 +1°C° 0 mm 2 mps 715 mmHg 89%
    02:00 +1°C° 0 mm 2 mps 715 mmHg 88%
    03:00 +1°C° 0 mm 2 mps 715 mmHg 88%
    04:00 +1°C° 0 mm 2 mps 715 mmHg 88%
    05:00 +2°C° 0 mm 2 mps 715 mmHg 88%
    06:00 +2°C° 0 mm 2 mps 715 mmHg 88%
    07:00 +2°C° 0 mm 1 mps 715 mmHg 87%
    08:00 +4°C° 0 mm 1 mps 715 mmHg 83%
    09:00 +4°C° 0 mm 2 mps 715 mmHg 80%
    10:00 +6°C° 0 mm 2 mps 716 mmHg 76%
    11:00 +7°C° 0 mm 2 mps 716 mmHg 76%
    12:00 +8°C° 0 mm 2 mps 715 mmHg 75%
    13:00 +8°C° 0 mm 2 mps 715 mmHg 75%
    14:00 +7°C° 0 mm 2 mps 715 mmHg 80%
    15:00 +6°C° 0 mm 2 mps 715 mmHg 85%
    16:00 +5°C° 0 mm 2 mps 715 mmHg 90%
    17:00 +5°C° 0 mm 2 mps 715 mmHg 91%
    18:00 +5°C° 0 mm 2 mps 715 mmHg 91%
    19:00 +4°C° 0 mm 2 mps 715 mmHg 91%
    20:00 +4°C° 0 mm 2 mps 715 mmHg 91%
    21:00 +4°C° 0 mm 2 mps 715 mmHg 91%
    22:00 +5°C° 0 mm 2 mps 715 mmHg 91%
    23:00 +5°C° 0 mm 2 mps 715 mmHg 91%

    Tomorrow, 25 November, Saturday

    Time Temperature Precipitation Wind Pressure Humidity
    00:00 +5°C° 0 mm 2 mps 715 mmHg 91%
    01:00 +5°C° 0 mm 2 mps 715 mmHg 91%
    02:00 +5°C° 0 mm 2 mps 715 mmHg 92%
    03:00 +4°C° 0 mm 3 mps 715 mmHg 92%
    04:00 +4°C° 0 mm 3 mps 715 mmHg 93%
    05:00 +4°C° 0 mm 3 mps 714 mmHg 93%
    06:00 +4°C° 0 mm 3 mps 714 mmHg 93%
    07:00 +4°C° 0 mm 3 mps 714 mmHg 93%
    08:00 +4°C° 0 mm 4 mps 713 mmHg 89%
    09:00 +5°C° 0 mm 4 mps 713 mmHg 86%
    10:00 +6°C° 0 mm 4 mps 713 mmHg 82%
    11:00 +6°C° 0 mm 5 mps 712 mmHg 81%
    12:00 +6°C° 0 mm 5 mps 711 mmHg 80%
    13:00 +6°C° 0 mm 5 mps 711 mmHg 79%
    14:00 +6°C° 0 mm 5 mps 710 mmHg 81%
    15:00 +5°C° 0 mm 5 mps 710 mmHg 82%
    16:00 +5°C° 0 mm 5 mps 710 mmHg 83%
    17:00 +5°C° 0.1 mm 5 mps 710 mmHg 84%
    18:00 +5°C° 0.1 mm 5 mps 709 mmHg 85%
    19:00 +6°C° 0.1 mm 4 mps 709 mmHg 86%
    20:00 +5°C° 0.2 mm 4 mps 709 mmHg 87%
    21:00 +5°C° 0.2 mm 4 mps 709 mmHg 87%
    22:00 +5°C° 0.2 mm 3 mps 710 mmHg 88%
    23:00 +5°C° 0 mm 3 mps 710 mmHg 89%

    Day after tomorrow, 26 November, Sunday

    Time Temperature Precipitation Wind Pressure Humidity
    00:00 +5°C° 0 mm 2 mps 710 mmHg 91%
    01:00 +5°C° 0 mm 2 mps 710 mmHg 92%
    02:00 +5°C° 0.2 mm 2 mps 710 mmHg 93%
    03:00 +6°C° 0.2 mm 1 mps 710 mmHg 93%
    04:00 +6°C° 0.2 mm 1 mps 711 mmHg 93%
    05:00 +4°C° 1.3 mm 2 mps 711 mmHg 93%
    06:00 +4°C° 1.3 mm 2 mps 712 mmHg 93%
    07:00 +4°C° 1.3 mm 2 mps 712 mmHg 92%
    08:00 +3°C° 0.8 mm 3 mps 712 mmHg 90%
    09:00 +2°C° 0.8 mm 3 mps 713 mmHg 88%
    10:00 +2°C° 0.8 mm 3 mps 713 mmHg 87%
    11:00 +2°C° 0.6 mm 3 mps 713 mmHg 86%
    12:00 +2°C° 0.6 mm 3 mps 714 mmHg 86%
    13:00 +2°C° 0.6 mm 3 mps 714 mmHg 86%
    14:00 +1°C° 0.5 mm 3 mps 714 mmHg 86%
    15:00 +1°C° 0.5 mm 3 mps 714 mmHg 86%
    16:00 +1°C° 0.5 mm 3 mps 714 mmHg 87%
    17:00 0°C° 0.2 mm 3 mps 715 mmHg 87%
    18:00 0°C° 0.2 mm 3 mps 715 mmHg 86%
    19:00 0°C° 0.2 mm 3 mps 715 mmHg 86%
    20:00 -1°C° 0.1 mm 4 mps 715 mmHg 87%
    21:00 -1°C° 0.1 mm 4 mps 716 mmHg 87%
    22:00 -1°C° 0.1 mm 4 mps 716 mmHg 87%
    23:00 -2°C° 0 mm 4 mps 716 mmHg 87%

    27 November, Monday

    Time Temperature Precipitation Wind Pressure Humidity
    00:00 -1°C° 0 mm 3 mps 716 mmHg 88%
    01:00 -2°C° 0 mm 3 mps 717 mmHg 89%
    02:00 -2°C° 0 mm 3 mps 717 mmHg 89%
    03:00 -2°C° 0 mm 3 mps 717 mmHg 88%
    04:00 -2°C° 0 mm 3 mps 717 mmHg 88%
    05:00 -4°C° 0 mm 3 mps 717 mmHg 89%
    06:00 -4°C° 0 mm 3 mps 717 mmHg 89%
    07:00 -3°C° 0 mm 2 mps 718 mmHg 90%
    08:00 -2°C° 0 mm 3 mps 718 mmHg 85%
    09:00 -2°C° 0 mm 3 mps 718 mmHg 81%
    10:00 -1°C° 0 mm 3 mps 718 mmHg 76%
    11:00 0°C° 0 mm 3 mps 718 mmHg 74%
    12:00 0°C° 0 mm 3 mps 718 mmHg 73%
    13:00 +1°C° 0 mm 3 mps 718 mmHg 71%
    14:00 +1°C° 0 mm 2 mps 718 mmHg 76%
    15:00 -1°C° 0 mm 2 mps 718 mmHg 81%
    16:00 -2°C° 0 mm 2 mps 718 mmHg 86%
    17:00 -2°C° 0 mm 2 mps 718 mmHg 88%
    18:00 -2°C° 0 mm 2 mps 718 mmHg 89%
    19:00 -1°C° 0 mm 1 mps 718 mmHg 91%
    20:00 -1°C° 0 mm 1 mps 718 mmHg 91%
    21:00 -1°C° 0 mm 1 mps 718 mmHg 91%
    22:00 -1°C° 0 mm 1 mps 718 mmHg 90%
    23:00 -1°C° 0 mm 1 mps 718 mmHg 90%

    28 November, Tuesday

    Time Temperature Precipitation Wind Pressure Humidity
    00:00 -2°C° 0 mm 1 mps 717 mmHg 90%
    01:00 -2°C° 0 mm 1 mps 717 mmHg 90%
    02:00 -2°C° 0 mm 1 mps 717 mmHg 90%
    03:00 -2°C° 0 mm 1 mps 716 mmHg 90%
    04:00 -2°C° 0 mm 1 mps 716 mmHg 90%
    05:00 -2°C° 0 mm 1 mps 716 mmHg 90%
    06:00 -2°C° 0 mm 1 mps 716 mmHg 89%
    07:00 -2°C° 0 mm 1 mps 716 mmHg 89%
    08:00 -1°C° 0 mm 1 mps 715 mmHg 83%
    09:00 0°C° 0 mm 1 mps 715 mmHg 77%
    10:00 +2°C° 0 mm 1 mps 715 mmHg 71%
    11:00 +3°C° 0 mm 1 mps 715 mmHg 68%
    12:00 +3°C° 0 mm 1 mps 714 mmHg 65%
    13:00 +4°C° 0 mm 1 mps 714 mmHg 62%
    14:00 +3°C° 0 mm 1 mps 713 mmHg 68%
    15:00 +1°C° 0 mm 1 mps 713 mmHg 74%
    16:00 0°C° 0 mm 1 mps 712 mmHg 80%
    17:00 -1°C° 0 mm 1 mps 712 mmHg 81%
    18:00 -1°C° 0 mm 1 mps 712 mmHg 83%
    19:00 -4°C° 0 mm 2 mps 712 mmHg 84%
    20:00 -4°C° 0 mm 2 mps 711 mmHg 83%
    21:00 -4°C° 0 mm 2 mps 711 mmHg 82%
    22:00 -4°C° 0 mm 2 mps 711 mmHg 81%
    23:00 -4°C° 0 mm 2 mps 711 mmHg 80%

    29 November, Wednesday

    Time Temperature Precipitation Wind Pressure Humidity
    00:00 -4°C° 0 mm 2 mps 710 mmHg 79%
    01:00 -4°C° 0 mm 2 mps 710 mmHg 78%
    02:00 -4°C° 0 mm 2 mps 710 mmHg 78%
    03:00 -4°C° 0 mm 2 mps 710 mmHg 77%
    04:00 -4°C° 0 mm 2 mps 709 mmHg 77%
    05:00 -3°C° 0 mm 2 mps 709 mmHg 77%
    06:00 -3°C° 0 mm 2 mps 709 mmHg 76%
    07:00 -3°C° 0 mm 2 mps 709 mmHg 76%
    08:00 -2°C° 0 mm 3 mps 709 mmHg 73%
    09:00 -2°C° 0 mm 3 mps 709 mmHg 69%
    10:00 -1°C° 0 mm 3 mps 709 mmHg 65%
    11:00 0°C° 0 mm 3 mps 709 mmHg 65%
    12:00 -1°C° 0 mm 4 mps 708 mmHg 65%
    13:00 -1°C° 0 mm 4 mps 708 mmHg 65%
    14:00 -1°C° 0 mm 3 mps 708 mmHg 71%
    15:00 -2°C° 0 mm 3 mps 708 mmHg 77%
    16:00 -2°C° 0 mm 3 mps 708 mmHg 82%
    17:00 -4°C° 0 mm 3 mps 708 mmHg 85%
    18:00 -4°C° 0 mm 3 mps 708 mmHg 87%
    19:00 -4°C° 0 mm 2 mps 708 mmHg 90%
    20:00 -3°C° 0 mm 2 mps 708 mmHg 90%
    21:00 -3°C° 0 mm 2 mps 708 mmHg 90%
    22:00 -3°C° 0 mm 2 mps 708 mmHg 90%
    23:00 -3°C° 0.1 mm 2 mps 708 mmHg 89%
    Show more